Погода в Волгограде

Погода в Волгограде : погода сейчас, прогноз погоды и архив. Всё, что Вы хотите узнать о погоде в Волгограде!

Хотите узнать прогноз погоды в Волгограде? Тогда Вам сюда: Погода в Волгограде

Поиск расширенной информации на нашем сайте:

Другие новости

Новости СМИ2

Главная страница сайта

Новости сайта

03.07.2017

Напоминаем, что на нашем специализированном сайте Метеоцентр.Азия вы можете получить высокодетализированные автоматические прогнозы погоды по пунктам России, СНГ и мира в авиационном формате (включающие направление и скорость ветра, видимость, явления погоды, количество и форму облачности, нижнюю и верхнюю границу облачности).


Погода в Волгограде - сегодня

Время (UTC), дата Ветер
(°,м/с) 
Видим.   Явления Облачность Т
(°С)
Тd
(°С)
f(%) Тe
(°С)
Pmin
(гПа)
dP
(гПа)
Po
(мм)
O2
(г/м3)
Тmin Tmax R s Состояние
почвы
09 19.07.17 040 (СВ) 8-13{13}  10 км    4/0 средняя 
[Ac trans]
+29.3 +15.9 44 +40  1011.5  -1  746  268           
12 19.07.17 050 (СВ) 6-10{13}  10 км    4/0 средняя 
[Ac trans]
+32 +13.1 32 +38  1009.9  -1.5  745  266           
15 19.07.17 030 (СВ) 8-11{12}  10 км    4/0 средняя 
[Ac trans]
+30 +15.3 41 +39  1009.5  -0.5  744  267    +32.7       
18 19.07.17 010 (С) 7-10{12}  10 км    8/0 верхняя 
[Ci fib]
+25.4 +14.4 51 +33  1010.1  0.4  744  272           
21 19.07.17 010 (С) 8-10{11}  10 км    4/0 средняя 
[Ac trans]
+22.4 +12.6 54 +27  1008.7  -1.5  743  274           
00 20.07.17 350 (С) 5{11}  10 км    3/0 средняя 
[Ac trans]
+19.8 +12.8 64 +25  1008.2  -0.6  743  277           
03 20.07.17 350 (С) 10 км    6/0 средняя, верхняя 
[Ac trans|Ci fib]
+19.6 +13.6 68 +27  1008.1  -0.1  743  276  +18.4         
06 20.07.17 010 (С) 10 км    8/0 верхняя 
[Ci fib]
+25.7 +14.5 50 +34  1007.9  0.1  743  271           
09 20.07.17 360 (С) 10 км    8/0 средняя 
[Ac trans]
+30.9 +14 36 +38  1006.9  -0.7  742  266           
12 20.07.17 340 (С) 10 км    8/0 средняя 
[Ac trans]
+35 +12.5 26 +40  1005.2  -1.3  741  262           
15 20.07.17 360 (С) 7-10{13}  10 км    8/0 средняя 
[Ac trans]
+31.9 +13.6 33 +39  1005.5  0.1  741  265    +35.4       
18 20.07.17 350 (С) 7{13}  10 км    8/0 средняя 
[Ac trans]
+26.3 +13.8 46 +33  1007.3  1.5  742  270           
21 20.07.17 340 (С) 6{11}  10 км    8/0 средняя 
[Ac trans]
+24 +15.8 60 +34  1007.6  0.2  743  272           
00 21.07.17 010 (С) 6{11}  10 км    9/0 средняя 
[Ac trans]
+22.6 +15.8 65 +33  1008.1  0.4  743  273           
03 21.07.17 340 (С) 10 км    8/0 средняя 
[Ac trans]
+21.5 +16.3 72 +33  1008.4  0.4  743  274  +21.2         
06 21.07.17 350 (С) 6{10}  10 км    9/0 средняя 
[Ac trans]
+24.2 +15.6 59 +34  1010.2  1.9  744  272           
09 21.07.17 350 (С) 4{10}  10 км    9/0 средняя 
[Ac trans]
+27 +14.9 48 +36  1010.8  0.8  745  270           
12 21.07.17 350 (С) 7{10}  10 км    8/0 средняя 
[Ac trans]
+28.6 +14.6 42 +37  1011.1  0.3  745  269           
15 21.07.17 010 (С) 5{10}  10 км    8/4 2000 м средняя, верхняя 
[Ac trans|Ci fib]
+29 +14.1 40 +36  1011  745  269    +29.6       
18 21.07.17 340 (С) 3{10}  10 км    ясно 
+23.8 +12.6 49 +29  1013.2  1.8  747  274           
21 21.07.17 020 (С) 10 км    ясно 
+21.3 +9.5 47 +22  1014.1  0.7  747  278           
00 22.07.17 030 (СВ) 10 км    ясно 
+19.5 +9.6 53 +21  1014.5  0.3  747  279           
03 22.07.17 тихо ()   10 км    ясно 
+20.3 +10.2 52 +22  1015.2  0.7  748  279  +17.3         
06 22.07.17 080 (В) 10 км    ясно 
+26.8 +8.1 31 +27  1015.5  0.7  748  273           
09 22.07.17 070 (В) 10 км    ясно 
+29.8 +6.7 23 +30  1014.7  -0.6  748  271           
Время (UTC), дата Ветер
(°,м/с) 
Видим.   Явления Облачность Т
(°С)
Тd
(°С)
f(%) Тe
(°С)
Pmin
(гПа)
dP
(гПа)
Po
(мм)
O2
(г/м3)
Тmin Tmax R s Состояние
почвы

Для получения пояснительной информации подведите курсор к названию столбца.

ПОГОДА в Волгограде - архив

Всё, что Вы хотите узнать о погоде в Волгограде - удобно и подробно!

Выберите нужную дату (начиная с 1 января 2015* года) и нажмите кнопку "Найти".
Будут отображены архивные сводки погоды по пункту Волгоград, начиная с указанной даты.


Отображать данные в формате CSV (для использования в таблицах Excel)


Внимание! Наш архив погоды предназначен исключительно для личного некоммерческого использования в познавательных целях. Если Вам необходимы официальные справки о состоянии погоды (для производственных, юридических, коммерческих и т.п. целей), обращайтесь в органы Росгидромета.

*Примечание: данная дата относится к архиву по метеостанциям СССР (Россия, СНГ, Балтия).
Архив по метеостанциям Зарубежной Европы и Азии (кроме Китая) хранится 10 дней, по другим регионам земного шара (Китай, Африка, Америка, Австралия, Океания) - 1 день.

Волгоград - район местоположения метеостанции


Название, широта, долгота, высота метеостанции:
Волгоград (Гумрак) 48.8°ш. 44.4°д. 134 м над ур. моря [Российская Федерация]

Дополнительная информация

В oтличие oт бoльшинства пoгoдных сайтoв мы публикуем пoдрoбную метеoинфoрмацию в детальнoм прoфессиoнальнoм фoрмате.

Характеристики температуры и влажнoсти вoздуха измеряются на высoте 2 м в тени вдали oт зданий и деревьев.
Скoрoсть ветра измеряется на высoте 10 м (на урoвне рoста челoвека скoрoсть ветра ниже в 1.5-2 раза). Если метеoстанция нахoдится в гoрoде или в лесу, тo скoрoсть ветра занижена на 2-4 м/с пo сравнению с oткрытым местoм. Скoрoсть ветра над акватoриями крупных рек и oзёр, а также на вершинах хoлмoв на 2-5 м/с выше, чем в oбычных услoвиях.
Атмoсфернoе давление в разных тoчках местнoсти мoжет значительнo oтличаться oт давления на метеoстанции, в зависимoсти oт услoвий рельефа (при пoдъёме на 10 м давление пoнижается примернo на 1 мм рт.ст.).